Hourly Weather Roundup
Issued by NWS

Home | Current Version | Previous Version | Text Only | Print | Product List | Glossary On
Versions: 1 2 3 4 5 6 7 8 9 10 11 12 13 14 15 16 17 18 19 20 21 22 23 24 25 26 27 28 29 30 31 32 33 34 35 36 37 38 39 40 41 42 43 44 45 46 47 48 49 50
798
NZUS43 KILX 211910
HWRCRS

NWR Hourly Weather Roundup
National Weather Service Lincoln IL
100 PM CST SUN JAN 21 2018


CITY           SKY/WX    TMP DP  RH WIND       PRES   REMARKS
Champaign      FOG       50  50 100 S14       29.92F VSB 1/4
Lawrenceville  CLOUDY    47  46  97 S13       30.00F FOG
Peoria         CLOUDY    49  46  90 SE5       29.87F FOG
Springfield    CLOUDY    61  54  77 S14       29.87F
$$


CITY           SKY/WX    TMP DP  RH WIND       PRES   REMARKS
Bloomington    LGT RAIN  47  47 100 S9        29.89F VSB 1/4
Danville       FOG       48  48 100 S10       29.92F VSB 1/2
Decatur        CLOUDY    53  53 100 S10       29.90F
Effingham      CLOUDY    53  53 100 SE8       29.97F FOG
Flora          FOG       50  50  99 S8        29.97F VSB 1/4
Galesburg      CLOUDY    47  45  92 SE6       29.85F
Jacksonville   CLOUDY    60  52  76 S8        29.85F
Lacon          CLOUDY    46  46  99 SE3       29.87F FOG
La Salle       CLOUDY    44  43  96 S5        29.88F FOG
Lincoln        CLOUDY    57  54  91 S9        29.88F
Litchfield     CLOUDY    55  52  91 SE15      29.89F

CITY           SKY/WX    TMP DP  RH WIND       PRES   REMARKS
Macomb         CLOUDY    50  48  94 SE7       29.85F
Mattoon        FOG       49  49 100 S10       29.93F VSB 1/4
Moline         FOG       44  43  96 E6        29.84F VSB 1
Olney          FOG       49  47  93 S7        29.98F VSB 1/4
Paris          CLOUDY    49  49 100 S13       29.96F FOG
Pontiac        FOG       44  44  99 SE6       29.90F VSB 3/4
Quincy         PTSUNNY   60  52  74 S13       29.81F
Rantoul        DRZL/FOG  49  49  99 S9        29.92F VSB 1/4
Robinson       CLOUDY    48  48 100 S10       30.00F FOG
Taylorville    CLOUDY    59  54  84 S20G26    29.89F
Terre Haute    CLOUDY    49  47  93 S14       29.98F FOG
$$


CITY           SKY/WX    TMP DP  RH WIND       PRES   REMARKS
Burlington     CLOUDY    50  45  83 SE5       29.81F
Chicago        CLOUDY    44  41  89 SE3       29.90F FOG
Des Moines     DRZL/FOG  41  40  96 NE8       29.78F VSB 1
Evansville     CLOUDY    51  50  96 SW10      30.03F
Indianapolis   CLOUDY    49  48  97 S12       29.99F FOG
Kansas City    CLOUDY    57  50  77 S10       29.72F
Milwaukee      CLOUDY    39  36  89 CALM      29.93F FOG
St Louis       CLOUDY    68  54  60 S17G28    29.85F
$$





USA.gov is the U.S. government's official web portal to all federal, state and local government web resources and services.